Location: ????????
(54.6123°N, 39.2099°E)
Time: 11:08:26
(UTC+00:00)

Cosmos 2237 Rocket - Pass Details

Date: 19 May 2025
Orbit: 834 x 849 km, 71.0° (Epoch: 13 June)

Event Time Altitude Azimuth Distance (km) Brightness Sun altitude
Rises 21:58:10 0° 326° (NW) 3,400 6.1 -15.0°
Reaches altitude 10° 22:00:45 10° 333° (NNW) 2,465 5.4 -14.9°
Maximum altitude 22:06:09 44° 45° (NE) 1,149 3.3 -14.8°
Drops below altitude 10° 22:11:33 10° 118° (ESE) 2,462 4.5 -14.6°
Sets 22:14:06 0° 124° (SE) 3,396 5.1 -14.5°
